Current weather by "City, St" or "zip code"  
 

Current Conditions: Beaumont/Port Arthur Southeast Texas Regional Airport, TX

Fair


78.0 F

Last Updated on Sep 18 2020, 10:53 am CDT
Humidity: 64%
Wind Speed: N 12.7 mph
Barometer 30.00 in
Dewpoint: 64.9 F
Visibility: 10.00 mi
Precip: --
Heat Index: NA
Wind Chill: NA
Current conditions at:

Beaumont/Port Arthur Southeast Texas Regional Airport, TX (KBPT)

Lat: 29.9521 Lon: 94.0261

Local Radar Image active severe weather and emergency alerts image image weather storm and storm spotter reports image weather observation monitoring service image
Local
Radar
Active
Alerts
Storm Reports Obs
Monitoring

Sign-up For Email & Text Message Weather Alert Notification Services



Advertise Here

Observation History for Beaumont/Port Arthur Southeast Texas Regional Airport, TX


Time Wind
(mph)
Vis
(mi)
Weather Precip (in) Temperature (F) Relative
Humidity
Wind
Chill
(F)
Heat
Index
(F)
Pressure
Air Dwpt altimeter
(in)
sea level
(mb)
Rmks
10:53 am CDT N 12.7 10.00 Fair -- 78.0 64.9 64% NA NA 30.00 1015.9
9:53 am CDT N 11.5 10.00 Fair -- 76.0 64.9 69% NA NA 29.98 1015.2
8:53 am CDT N 10.4 10.00 Fair -- 74.0 66.9 79% NA NA 29.97 1014.7
7:53 am CDT N 11.5 10.00 Fair -- 74.0 68.0 82% NA NA 29.94 1013.8
6:53 am CDT N 8.1 10.00 Fair -- 75.0 70.0 84% NA NA 29.93 1013.5
5:53 am CDT N 9.2 10.00 Fair -- 75.0 70.0 84% NA NA 29.92 1013.3
4:53 am CDT NE 9.2 10.00 Fair -- 76.0 71.1 85% NA NA 29.92 1013.2
3:53 am CDT N 8.1 10.00 Fair -- 76.0 72.0 88% NA NA 29.92 1013.1
2:53 am CDT NE 9.2 10.00 Fair -- 77.0 72.0 85% NA NA 29.92 1013.1
1:53 am CDT N 8.1 10.00 Fair -- 78.0 72.0 82% NA NA 29.92 1013.2
12:53 am CDT N 9.2 10.00 Mostly Cloudy -- 79.0 72.0 79% NA NA 29.93 1013.4
11:53 pm CDT N 6.9 10.00 Fair -- 78.0 72.0 82% NA NA 29.94 1013.6
10:53 pm CDT N 8.1 10.00 Fair -- 79.0 73.0 82% NA NA 29.93 1013.3
9:53 pm CDT N 9.2 10.00 Fair -- 80.0 73.0 79% NA 84 29.92 1013.2
8:53 pm CDT N 10.4 10.00 A Few Clouds -- 80.0 73.0 79% NA 84 29.90 1012.5
7:53 pm CDT N 11.5 10.00 Fair -- 82.0 73.0 74% NA 87 29.88 1011.7
6:53 pm CDT N 10.4 10.00 Fair -- 83.0 73.0 72% NA 89 29.87 1011.4
5:53 pm CDT N 9.2 10.00 A Few Clouds -- 84.0 73.0 70% NA 90 29.86 1011.2
4:53 pm CDT N 8.1 10.00 Partly Cloudy -- 85.0 73.0 68% NA 92 29.87 1011.3
3:53 pm CDT N 6.9 10.00 Mostly Cloudy -- 86.0 72.0 63% NA 92 29.88 1011.7
2:53 pm CDT N 8.1 10.00 Overcast -- 86.0 72.0 63% NA 92 29.89 1011.9
1:53 pm CDT NE 6.9 10.00 Mostly Cloudy -- 87.0 71.1 59% NA 93 29.91 1012.8
12:53 pm CDT N 9.2 10.00 Partly Cloudy -- 89.0 72.0 57% NA 96 29.92 1013.0
11:53 am CDT N 11.5 10.00 Fair -- 85.0 71.1 63% NA 90 29.93 1013.5

Regional Weather Observation


Beaumont/Port Arthur Southeast Texas Regional Airport, TX (KBPT)

Fair
78.0 F

Orange, Orange County Airport, TX (KORG)

Fair
78.0 F

Jasper, Jasper County-Bell Field Airport, TX (KJAS)

Fair
80.0 F

Southland Field, LA (KUXL)

Heavy Rain and Windy
76.0 F

Lake Charles Regional Airport, LA (KLCH)

Fair
76.0 F

Chenault Airpark, LA (KCWF)

Clear
75.0 F